Location: Grust
(42.8833°N, 0.0333°W)
Time: 19:26:53
(UTC+00:00)

SL-08 R/B - Pass Details

Date: 25 October 2020
Orbit: 946 x 994 km, 83.0° (Epoch: 23 November)

Event Time Altitude Azimuth Distance (km) Brightness Sun altitude
Rises 18:11:56 0° 356° (N) 3,664 7.5 -13.5°
Reaches altitude 10° 18:14:32 10° 0° (N) 2,706 6.8 -14.0°
Maximum altitude 18:20:36 55° 78° (ENE) 1,133 4.5 -15.1°
Drops below altitude 10° 18:26:33 10° 156° (SSE) 2,664 6.6 -16.2°
Sets 18:29:05 0° 161° (SSE) 3,602 7.3 -16.6°
